{"data":{"norad_id":61589,"intl_designator":"2024-187R","name":"STARLINK-32416","alt_names":[],"object_type":"PAYLOAD","status":"ACTIVE","operator":null,"country":"US","launch_date":"2024-10-18","launch_site_code":"AFETR","launch_vehicle":null,"mission":null,"orbit_class":"UNKNOWN","rcs_meters":null,"size_class":null,"mass_kg":null,"dimensions":null,"purposes":["comms"],"wikipedia_slug":null,"has_3d_model":false,"image_url":null,"decayed_at":null,"tle_current":{"epoch":"2026-09-21T06:37:46.782624Z","epoch_age_seconds":125019,"freshness":"FRESH","line1":"1 61589U 24187R   26264.27623591 -.00001237  00000+0 -25465-4 0  9996","line2":"2 61589  53.1634 217.7472 0001754  71.8247 288.2946 15.34395612109298","mean_motion":15.34395612,"eccentricity":0.0001754,"inclination_deg":53.1634,"raan_deg":217.7472,"arg_perigee_deg":71.8247,"mean_anomaly_deg":288.2946,"bstar":-2.5465e-5,"rev_number":10929,"period_min":93.848026463204,"perigee_km":461.5163966332,"apogee_km":463.91616796463,"semimajor_km":6840.8532822989,"source":"CELESTRAK","updated_at":"2026-09-22T09:00:49.393462Z"}}}